Location: Unspecified
(43.4680°N, 87.1740°E)
Time: 20:53:39
(UTC+00:00)

STARLINK-1075 - Pass Details

Date: 17 January 2020
Orbit: 348 x 351 km, 53.0° (Epoch: 25 February)

Event Time Altitude Azimuth Distance (km) Brightness Sun altitude
Rises 12:40:30 0° 242° (WSW) 2,160 8.2 -17.5°
Reaches altitude 10° 12:42:32 10° 247° (WSW) 1,320 6.8 -17.9°
Maximum altitude 12:45:27 58° 328° (NNW) 418 3.0 -18.4°
Enters shadow 12:45:40 56° 352° (N) 429 3.0 -18.4°
